Regional Weather Roundup
Issued by NWS Green Bay, WI

Home | Current Version | Previous Version | Text Only | Print | Product List | Glossary On
Versions: 1 2 3 4 5 6 7 8 9 10 11 12 13 14 15 16 17 18 19 20 21 22 23 24 25 26 27 28 29 30 31 32 33 34 35 36 37 38 39 40 41 42 43 44 45 46 47 48 49 50
000
ASUS43 KGRB 031100
RWRGRB

NORTH-CENTRAL AND NORTHEAST WISCONSIN REGIONAL WEATHER ROUNDUP
NATIONAL WEATHER SERVICE GREEN BAY WI
600 AM CDT TUE AUG 03 2021

WIZ005-009-010>012-018-019-031200-
NORTH CENTRAL WISCONSIN

CITY           SKY/WX    TMP DP  RH WIND       PRES   REMARKS
IRONWOOD       MOCLDY    61  54  77 W5        30.05S
MANITOWISH WTR PTCLDY    52  52 100 CALM      30.08S
ARBOR VITAE    CLEAR     57  46  65 CALM      30.09S HAZE
EAGLE RIVER    NOT AVBL
LAND O LAKES   CLEAR     49  49 100 CALM      30.09S FOG
RHINELANDER    CLEAR     56  54  93 W7        30.10S
PHILLIPS       CLEAR     55  55 100 CALM      30.09S
ANTIGO         NOT AVBL
TOMAHAWK       CLEAR     49  48  99 CALM      30.09S
MERRILL        FOG       50  50 100 CALM      30.08F VSB 3/4
$$

WIZ013-073-031200-
NORTHEAST WISCONSIN

CITY           SKY/WX    TMP DP  RH WIND       PRES   REMARKS
IRON MOUNTAIN  PTCLDY    57  53  86 CALM      30.04S FOG
MARINETTE      CLEAR     59  58  96 CALM      30.06S
$$

WIZ017-030-035>037-045-031200-
CENTRAL WISCONSIN

CITY           SKY/WX    TMP DP  RH WIND       PRES   REMARKS
MEDFORD        CLEAR     55  55  99 SW3       30.10S
WAUSAU         CLEAR     61  56  83 CALM      30.08S
MOSINEE        CLEAR     54  54 100 CALM      30.11S
MARSHFIELD     CLEAR     57  54  89 W3        30.10S
WISC RAPIDS    CLEAR     56  56 100 CALM      30.11S FOG
STEVENS POINT  NOT AVBL
WAUPACA        CLOUDY    60  58  92 CALM      30.10S
SHAWANO        CLEAR     58  58  98 CALM      30.08S
CLINTONVILLE   CLEAR     57  55  92 CALM      30.09S
WAUTOMA        CLOUDY    55  54  96 CALM      30.11R
$$

WIZ038-039-048-051-031200-
FOX VALLEY

CITY           SKY/WX    TMP DP  RH WIND       PRES   REMARKS
NWS GREEN BAY  CLOUDY    61  57  87 CALM      30.08R
APPLETON       NOT AVBL
OSHKOSH        MOCLDY    60  55  83 CALM      30.09S
FOND DU LAC    CLEAR     59  53  80 S5        30.11R
$$

WIZ022-050-052-031200-
EAST CENTRAL WISCONSIN

CITY           SKY/WX    TMP DP  RH WIND       PRES   REMARKS
EPHRAIM        NOT AVBL
WASHINGTON ISL FAIR      64  63  96 SW6       30.03S
STURGEON BAY   PTCLDY    63  60  90 W6        30.07R
MANITOWOC      MOCLDY    62  59  90 W5        30.09R
SHEBOYGAN      CLEAR     57  54  89 SW3       30.09S
$$

LMZ563-521-522-541>543-031200-
LAKESHORE

STATION/POSITION TIME  TEMP    WIND        PRES    VSBY  WAVE
                       AIR SEA DIR/SP/G                  HT/PER
                 (UTC) (F)     (DEG/KT/KT) (MB)    (MI)  (FT/S)
SHEBOYGAN LKSHOR 1000   64     250/  9/ 11   N/A
KEWAUNEE LKSHORE 1024   62     300/  4/  6 1016.7
NORTHPORT PIER   1040   65     230/  3/  7 1017.9R
N MID LAKE BUOY  1040   67 67  250/  8/ 10 1017.1R
S GREEN BAY BUOY 1030   73 72  250/ 10/ 14 1017.3R         1/ 3
SISTER BAY LKSHO 1017   67     300/  9/ 10   N/A
CHAMBERS ISLAND  1040   64     170/  3/  6   N/A
MENOMINEE LKSHOR 1024   63 75  260/  8/ 11 1016.4
$$



USA.gov is the U.S. government's official web portal to all federal, state and local government web resources and services.